Location: Unspecified
(52.0000°N, 4.4000°E)
Time: 05:24:12
(UTC+00:00)

ALOS 2 - Pass Details

Date: 14 May 2025
Orbit: 630 x 632 km, 97.9° (Epoch: 14 June)

Event Time Altitude Azimuth Distance (km) Brightness Sun altitude
Exits shadow 23:49:09 28° 234° (SW) 1,192 3.7 -19.1°
Maximum altitude 23:50:18 32° 264° (W) 1,084 3.7 -19.1°
Drops below altitude 10° 23:54:18 10° 329° (NNW) 2,028 6.0 -19.0°
Sets 23:56:42 0° 339° (NNW) 2,941 7.2 -19.0°
